GFSNIL_con_mucape_021.txt.gz
CAPE
29 16 25 68 217 202 320 412 511 488 386 360 408 379 395 325 350 431 545 558 585 555
30 117 251 206 148 221 271 292 467 464 412 524 399 192 428 305 272 463 339 32 26 132
124 264 106 152 317 313 322 267 393 377 477 504 503 377 393 251 374 382 254 185 318 339
321 35 74 164 256 385 397 310 269 237 417 488 65 48 185 180 70 123 103 145 303 166
151 7 128 260 182 359 483 375 219 167 254 22 31 11 56 36 83 61 190 282 61 118
141 20 91 301 376 383 469 381 235 171 168 31 45 13 27 17 10 35 69 24 103 157
155 21 108 304 421 491 471 417 364 332 160 92 51 42 49 40 121 89 54 119 266 231
124 32 105 301 315 363 451 366 316 323 204 49 100 94 39 49 25 41 45 32 14 81
149 1 174 272 273 406 370 305 264 252 260 109 23 1 0 3 37 36 57 36 33 14
52 43 197 83 117 392 471 471 392 207 197 14 0 0 0 0 4 66 27 15 12 13
20 41 102 15 4 157 424 386 95 66 37 13 1 0 0 0 33 40 74 49 23 22
83 10 29 0 0 2 53 104 26 29 41 14 16 9 3 12 19 26 60 27 46 60
29 35 0 1 0 0 11 34 115 39 22 27 26 10 17 12 47 10 6 25 13 6
39 198 99 113 0 0 0 35 78 43 18 3 28 15 26 26 50 51 9 46 22 1

GFSNIL_con_mucape_024.txt.gz
CAPE
669 558 496 583 512 451 738 716 657 699 678 690 667 641 675 688 763 852 1022 726 491 555
720 678 585 574 446 488 612 500 625 620 650 689 641 693 752 890 830 833 932 800 768 996
725 575 555 652 414 398 479 361 535 607 586 640 655 670 720 708 731 764 662 85 328 597
655 408 503 525 479 436 435 401 431 478 526 593 692 702 712 609 550 462 626 647 599 652
559 367 528 494 588 587 528 330 246 323 482 393 397 543 444 411 422 412 344 426 427 567
536 426 510 496 574 469 376 291 228 316 498 167 381 428 184 158 131 242 384 310 227 408
495 391 501 568 628 485 467 344 234 225 228 92 125 91 245 167 159 150 458 286 336 280
492 382 469 462 574 556 562 516 395 381 144 62 57 42 71 392 191 78 370 486 322 296
392 324 471 471 513 548 538 502 489 561 378 163 21 0 0 67 164 186 256 415 345 128
277 351 406 392 397 596 621 642 496 418 345 79 43 0 1 2 173 321 326 284 74 22
225 414 395 508 606 622 761 704 442 160 196 104 13 0 0 9 139 237 450 125 391 229
249 421 351 297 778 782 666 21 74 113 70 82 0 0 0 6 214 342 330 383 174 164
176 273 108 97 698 829 785 564 168 70 10 8 8 4 0 13 7 66 95 210 109 20
312 194 279 97 645 853 653 654 375 95 91 62 8 7 0 22 33 46 16 69 48 1

GFSNIL_con_mucape_030.txt.gz
CAPE
1639 1362 1408 1444 1187 1249 1250 1104 983 754 685 812 813 594 783 741 423 419 590 331 393 477
1458 1533 1389 1350 1247 1234 1194 834 812 670 864 774 700 745 739 416 557 506 376 515 377 398
1183 1178 1309 1227 1091 919 1063 500 876 907 839 788 641 637 621 548 997 446 266 209 483 471
1226 755 1195 837 974 990 718 790 541 520 901 703 591 458 548 702 337 227 150 132 101 147
682 698 923 929 983 875 492 563 557 502 605 400 605 872 500 434 605 517 299 156 124 105
910 949 987 1014 952 855 746 377 272 281 257 483 602 519 452 422 374 393 241 164 168 110
1177 796 981 997 868 897 339 289 264 480 430 469 264 170 216 231 339 384 223 146 321 147
825 875 834 802 797 788 214 241 159 456 341 190 116 83 283 290 364 457 292 162 195 30
660 559 833 695 897 930 725 665 470 539 166 197 0 2 20 67 322 424 245 193 44 12
678 514 691 666 644 752 905 695 526 439 343 6 0 0 5 134 445 276 275 158 127 70
485 462 570 325 860 987 932 729 690 556 174 8 0 0 8 149 358 261 245 167 149 40
500 636 609 709 1039 1214 862 483 207 391 203 4 0 0 34 150 291 242 160 136 92 16
558 634 911 884 1062 1099 946 443 280 74 47 1 0 0 0 66 141 39 7 18 8 0
747 860 1108 1155 1033 1117 823 280 142 53 18 71 3 0 0 38 171 113 12 3 1 4

GFSNIL_con_mucape_033.txt.gz
CAPE
382 339 576 497 501 504 330 447 254 169 125 303 332 300 147 85 51 156 88 225 195 173
462 540 352 306 351 441 420 17 49 81 199 324 258 147 90 65 184 184 52 181 124 109
470 379 464 295 118 297 313 183 72 312 375 254 207 208 176 94 140 46 34 60 97 118
384 375 285 279 243 210 140 97 316 415 349 211 295 297 120 152 128 42 34 62 68 88
408 347 192 238 184 2 61 9 36 239 269 249 210 158 107 28 47 71 52 12 38 27
188 223 258 321 110 8 14 21 93 136 113 173 100 74 156 115 84 63 63 56 57 42
168 229 280 226 169 36 103 22 66 188 172 57 0 7 10 22 102 164 58 56 48 39
177 187 261 219 248 265 47 38 149 34 6 0 212 5 1 67 147 133 73 46 13 12
182 179 307 249 175 97 56 166 51 7 0 0 0 2 4 91 94 104 35 34 16 11
240 104 169 227 80 51 64 117 31 1 0 0 0 2 22 88 66 66 8 1 2 13
354 198 283 223 78 36 31 65 75 23 0 0 0 0 36 35 12 2 8 0 0 1
252 248 138 184 119 80 48 31 86 19 0 0 0 0 46 44 0 3 8 1 3 0
224 261 222 232 126 120 33 35 55 38 0 0 0 0 44 6 0 1 7 5 19 8
289 543 353 313 332 79 6 8 20 22 1 0 0 0 0 6 4 0 0 40 0 0